Location: Quail Creek Observatory
(32.9410°N, 97.1240°W)
Time: 05:26:12
(UTC-05:00)

Daily predictions for brighter satellites

Satellite Brightness Start Highest point End
(mag) Time Altitude Azimuth Time Altitude Azimuth Time Altitude Azimuth
Cosmos 2237 Rocket 4.2 04:30:15 10° N 04:34:53 25° ENE 04:39:28 10° ESE
USA 238 4.5 04:43:13 40° SSE 04:43:13 40° SSE 04:47:27 10° SSE
ATLAS 5 CENTAUR R/B 4.3 04:39:09 10° N 04:44:19 28° NE 04:49:45 10° ESE
USA 215 3.7 04:47:49 10° SSE 04:52:18 46° SSE 04:52:18 46° SSE
Cosmos 1605 Rocket 4.0 04:52:11 10° N 04:58:22 75° E 05:04:35 10° S
NOSS 0 Rocket 4.4 04:54:00 10° NNW 05:00:10 60° ENE 05:06:18 10° SE
CZ-4C R/B 3.1 05:03:03 54° SSW 05:03:03 54° SSW 05:09:24 10° SSE
Cosmos 2227 Rocket 2.3 05:03:27 69° N 05:03:27 69° N 05:08:27 10° NNE
ADEOS II 3.8 04:58:18 10° NE 05:02:52 29° E 05:07:23 10° SSE
Lacrosse 5 2.5 05:08:53 46° N 05:08:53 46° N 05:12:40 10° NNE
Cosmos 2297 Rocket 2.1 05:11:41 70° S 05:12:19 82° ESE 05:17:59 10° NNE
Cosmos 1025 Rocket 3.6 05:13:42 52° NNE 05:13:42 52° NNE 05:17:07 10° NNE
CZ-2D R/B 4.3 05:10:06 10° NNW 05:10:37 12° NNW 05:10:37 12° NNW
Cosmos 2219 Rocket 2.0 05:09:16 10° NNW 05:14:59 86° WSW 05:20:39 10° SSE
Okean O Rocket 3.0 05:13:46 10° N 05:15:59 29° N 05:15:59 29° N
ADEOS Rocket 3.4 05:13:03 10° NNE 05:20:06 70° ESE 05:26:24 10° S
CZ-2C R/B 3.8 05:21:18 68° N 05:21:18 68° N 05:25:18 10° NNW
Tiangong 1 3.8 05:25:06 15° NNE 05:25:06 15° NNE 05:25:57 10° NE
CZ-4B R/B 3.3 05:23:05 10° N 05:26:45 57° NNW 05:26:45 57° NNW
Cosmos 1680 Rocket 3.7 05:22:20 10° NNW 05:27:37 72° ENE 05:32:49 10° SSE
Cosmos 2344 4.3 05:26:42 32° WNW 05:27:55 33° NW 05:35:30 10° NNE
Cosmos 1606 Rocket 4.2 05:24:06 10° N 05:28:23 55° E 05:32:37 10° SSE
CZ-4B DEB 4.1 05:24:57 10° N 05:30:26 74° WNW 05:32:17 43° SSW
NOSS 3-4 (A) 3.9 05:31:05 41° WNW 05:31:39 41° NW 05:37:46 10° NNE
NOSS 3-4 (C) 3.9 05:31:09 41° WNW 05:31:45 42° NW 05:37:53 10° NNE
Delta 2 Rocket 3.5 05:34:00 53° NNE 05:34:00 53° NNE 05:37:17 10° ENE
Cosmos 2100 Rocket 4.5 05:29:14 10° N 05:35:26 62° E 05:41:39 10° SSE
Okean 2 3.5 05:35:48 29° S 05:37:53 75° E 05:42:02 10° N
PAYLOAD B 4.3 05:33:57 10° N 05:39:17 52° WNW 05:40:28 44° WSW
Cosmos 1726 Rocket 3.9 05:35:29 10° N 05:39:50 63° E 05:44:08 10° SSE
Cosmos 2298 Rocket 4.1 05:36:43 16° S 05:40:57 75° ESE 05:46:16 10° NNE
OAO 2 Rocket 4.3 05:39:55 28° SSW 05:41:56 40° SSE 05:46:52 10° E
Cosmos 2082 4.1 05:41:45 40° WNW 05:42:08 40° WNW 05:47:24 10° N
Cosmos 1892 Rocket 3.4 05:42:55 25° SSW 05:45:29 80° W 05:49:59 10° N
Feng Yun 1-1 Rocket 4.5 05:43:04 10° NNE 05:48:45 75° ESE 05:54:32 10° S
Thor Agena Rocket 3.5 05:43:52 10° SSE 05:49:09 87° WSW 05:54:29 10° NNW
Cosmos 2333 Rocket 2.3 05:46:19 10° NNW 05:51:50 52° WSW 05:57:17 10° S
Cosmos 2150 Rocket 3.9 05:50:43 10° SSW 05:55:52 90° SSW 06:01:02 10° NNE
PSLV R/B 3.6 05:54:40 10° N 05:58:54 56° WNW 06:01:34 21° SSW
GOES 2 Rocket 4.3 05:56:46 28° WSW 06:00:06 61° S 06:08:04 10° E
Cosmos 1000 Rocket 4.4 05:57:55 10° SSW 06:04:12 70° W 06:10:31 10° N
Cosmos 990 Rocket 4.4 06:03:23 10° S 06:08:34 65° ESE 06:13:46 10° NNE
Cosmos 2098 Rocket 3.8 06:04:38 10° N 06:08:36 59° E 06:13:40 10° SSE
Cosmos 1666 2.8 06:08:31 10° NNW 06:12:15 48° W 06:15:56 10° SSW
Cosmos 2016 Rocket 4.1 06:06:08 10° N 06:12:30 83° E 06:18:45 10° S
Meteor 2-4 Rocket 4.2 06:08:59 12° SW 06:14:00 39° WNW 06:19:28 10° N
CZ-4B R/B 4.2 06:09:42 10° NNW 06:14:05 26° WNW 06:16:14 20° WSW
Cosmos 2228 3.1 06:10:27 10° N 06:14:52 85° E 06:19:13 10° S
DELTA 2 R/B (1) 3.8 06:11:43 23° W 06:15:09 59° NNW 06:20:41 10° ENE
Hubble Space Telescope 2.3 06:16:50 18° SW 06:18:18 22° SSW 06:21:32 10° SSE
Cosmos 2173 Rocket 3.9 06:12:20 10° NNW 06:18:20 62° W 06:24:22 10° S
Cosmos 2237 Rocket 2.7 06:13:51 10° NW 06:18:56 36° WSW 06:24:00 10° SSW
Okean-O 3.0 06:15:24 10° N 06:19:34 41° WNW 06:23:43 10° SW
OTV 4 0.2 06:18:30 28° WNW 06:19:46 78° NNE 06:22:29 10° ESE
FALCON 9 R/B 4.1 06:14:24 17° WSW 06:20:05 76° SSE 06:47:47 10° ENE
RESURS DK-1 4.1 06:22:24 15° WNW 06:22:42 15° WNW 06:25:11 10° NNW
ISS -1.1 06:24:39 12° SW 06:24:39 12° SW 06:25:28 10° SSW
Cosmos 2123 Rocket 4.0 06:17:47 10° S 06:23:59 90° W 06:30:11 10° N
NOSS 3-2 (A) 4.4 06:18:43 10° NW 06:25:53 42° WSW 06:33:22 10° S
Cosmos 1459 Rocket 4.2 06:21:43 10° NNW 06:27:49 50° W 06:33:50 10° SSW
Cosmos 2058 Rocket 3.3 06:23:59 10° NNW 06:28:07 43° W 06:32:14 10° SSW
ATLAS 5 CENTAUR R/B 2.7 06:23:17 10° NW 06:29:15 49° WSW 06:35:32 10° S
Cosmos 1898 Rocket 4.0 06:24:50 10° SW 06:29:46 38° WNW 06:34:42 10° N
Radarsat Rocket 4.3 06:23:44 10° NNE 06:30:25 79° ESE 06:36:24 10° SSW
Cosmos 1346 Rocket 4.3 06:32:28 15° W 06:33:24 16° WNW 06:35:56 10° NW
MOS 1 Rocket 3.6 06:32:44 10° N 06:37:23 49° WNW 06:42:18 10° SSW
COSMO-SKYMED 1 3.4 06:33:28 10° SSE 06:37:42 56° ENE 06:41:57 10° N
SL-16 R/B 2.2 06:32:25 10° NNW 06:38:01 62° WSW 06:43:35 10° S
COBE Rocket 4.1 06:34:47 10° N 06:39:20 46° WNW 06:43:47 10° SSW
ADEOS II 3.0 06:38:04 10° NNW 06:42:26 27° WNW 06:46:47 10° SW
Cosmos 1937 Rocket 4.0 06:40:29 10° SW 06:45:18 38° WNW 06:50:12 10° N
Cosmos 2227 Rocket 4.1 06:47:05 10° WNW 06:47:36 10° NW 06:48:08 10° NW
NOAA 6 4.2 06:43:49 10° N 06:48:53 56° WNW 06:53:56 10° SSW
Lacrosse 5 4.0 06:50:00 10° NW 06:51:34 11° NNW 06:53:09 10° NNW
Cosmos 2297 Rocket 4.0 06:54:53 10° WNW 06:57:02 12° NW 06:59:10 10° NNW
NOSS 2-2 (D) 4.0 06:53:29 10° SW 06:57:18 39° NW 07:01:31 10° NNE
Cosmos 1626 Rocket 4.3 06:54:41 10° SW 06:58:38 32° W 07:02:34 10° NNW
Cosmos 192 4.3 06:57:19 10° NNW 07:02:16 74° WSW 07:07:08 10° S
CENTAUR R/B 3.3 06:57:04 10° NNW 07:05:07 88° ENE 07:13:30 10° SSE
